Torna al catalogo

SJ-12

AttivoMilitareSSO
NORAD 36596·PAYLOAD·🇨🇳 China

Lanciato Jun 15, 2010 da Jiuquan Satellite Launch Center

Loading…

Prossimi Passaggi (prossime 24 ore)

TLE

AggiornatoSource: Space-Track

Epoca: Sep 14, 2026, 11:57 UTC

1 36596U 10027A   26257.49819831  .00003374  00000-0  17228-3 0  9994
2 36596  97.7607 277.3489 0007513 138.0486 222.1324 15.17410758888406

Traccia SJ-12 in tempo reale con AllMySat

Download on the App Store